Location: Breungeshain
(50.5000°N, 9.2000°E)
Time: 09:49:41
(UTC+00:00)

ISS - Pass Details

Date: 19 May 2017
Orbit: 401 x 407 km, 51.6° (Epoch: 25 September)

Event Time Altitude Azimuth Distance (km) Brightness Sun altitude
Exits shadow 01:10:31 17° 268° (W) 1,126 -1.9 -15.6°
Maximum altitude 01:12:56 75° 352° (N) 433 -3.7 -15.4°
Drops below altitude 10° 01:16:16 10° 79° (E) 1,484 -0.4 -15.2°
Sets 01:18:22 0° 81° (E) 2,343 0.6 -15.0°
